FW5816 Weather Reports


Display with metric or nautical units.
time (UTC)temp
F
wind
direction
speed
MPH
gust
MPH
rain 1hr
in
rain 24hr
in
rain mn
in
humidity
%
barometer
mb
20260906132018 73 46 3.0 9.0 0.00 0.00 0.00 91 1015.1
20260906131547 73 118 4.0 9.0 0.00 0.00 0.00 91 1015.0
20260906131019 73 53 4.0 7.0 0.00 0.00 0.00 91 1015.0
20260906130518 73 54 2.0 9.0 0.00 0.00 0.00 91 1015.0
20260906130044 73 58 4.0 9.0 0.00 0.00 0.00 91 1015.0
20260906125517 73 114 3.0 9.0 0.00 0.00 0.00 92 1015.0
20260906125021 73 60 3.0 7.0 0.00 0.00 0.00 92 1015.1
20260906124541 73 67 3.0 6.0 0.00 0.00 0.00 92 1014.9
20260906124020 73 65 0.0 4.0 0.00 0.00 0.00 92 1014.9
20260906123516 73 10 1.0 6.0 0.00 0.00 0.00 92 1014.7
20260906123037 73 0 1.0 8.0 0.00 0.00 0.00 92 1014.7
20260906122518 73 56 2.0 8.0 0.00 0.00 0.00 92 1014.6
20260906122018 73 42 3.0 8.0 0.00 0.00 0.00 92 1014.4
20260906121543 73 58 2.0 8.0 0.00 0.00 0.00 92 1014.4
20260906121020 73 38 4.0 9.0 0.00 0.00 0.00 92 1014.2
20260906120520 73 84 2.0 9.0 0.00 0.00 0.00 93 1014.1
20260906120036 73 39 3.0 8.0 0.00 0.00 0.00 93 1014.1
20260906115520 73 39 2.0 6.0 0.00 0.47 0.00 93 1014.0
20260906115020 73 42 2.0 6.0 0.00 0.47 0.00 93 1013.9
20260906114536 73 39 1.0 10.0 0.00 0.47 0.00 93 1013.9
20260906114021 73 17 2.0 10.0 0.00 0.47 0.00 93 1013.8
20260906113518 73 69 3.0 10.0 0.00 0.47 0.00 93 1013.6
20260906113044 73 55 3.0 10.0 0.00 0.47 0.00 93 1013.7
20260906112519 73 47 2.0 10.0 0.00 0.47 0.00 93 1013.6
20260906112024 73 92 4.0 10.0 0.00 0.47 0.00 93 1013.6
20260906111539 73 42 3.0 7.0 0.00 0.47 0.00 93 1013.6
20260906111020 73 84 1.0 8.0 0.00 0.47 0.00 94 1013.6
20260906110522 73 89 3.0 8.0 0.00 0.47 0.00 94 1013.6
20260906110035 73 138 2.0 7.0 0.00 0.47 0.00 94 1013.6
20260906105523 73 63 2.0 7.0 0.00 0.47 0.00 94 1013.6
20260906105017 73 60 2.0 7.0 0.00 0.47 0.00 94 1013.5
20260906104537 73 34 3.0 7.0 0.00 0.47 0.00 94 1013.5
20260906104018 73 66 2.0 7.0 0.00 0.47 0.00 94 1013.5
20260906103517 72 9 0.0 7.0 0.00 0.47 0.00 94 1013.4
20260906103038 72 58 1.0 6.0 0.00 0.47 0.00 94 1013.4
20260906102517 72 63 1.0 6.0 0.00 0.47 0.00 94 1013.2
20260906102019 72 81 2.0 5.0 0.00 0.47 0.00 94 1013.2
20260906101535 72 54 2.0 5.0 0.00 0.47 0.00 94 1013.2
20260906101018 72 61 1.0 5.0 0.00 0.47 0.00 94 1013.0
20260906100518 72 75 1.0 6.0 0.00 0.47 0.00 94 1013.0
20260906100034 72 65 3.0 6.0 0.00 0.47 0.00 94 1012.9
20260906095517 72 27 1.0 4.0 0.00 0.51 0.00 94 1013.0
20260906095017 72 20 1.0 5.0 0.00 0.51 0.00 94 1013.0
20260906094536 72 25 1.0 5.0 0.00 0.51 0.00 94 1012.9
20260906094016 72 51 3.0 5.0 0.00 0.51 0.00 93 1012.7
20260906093518 72 69 1.0 4.0 0.00 0.51 0.00 93 1012.7
20260906093038 72 0 0.0 4.0 0.00 0.51 0.00 93 1012.8
20260906092520 72 49 0.0 4.0 0.00 0.51 0.00 93 1012.7
20260906092020 72 315 1.0 4.0 0.00 0.51 0.00 93 1012.7
20260906091536 72 73 1.0 4.0 0.00 0.51 0.00 92 1012.5
20260906091019 72 44 0.0 3.0 0.00 0.51 0.00 92 1012.6
20260906090519 72 58 0.0 3.0 0.00 0.51 0.00 92 1012.6
20260906090037 73 39 0.0 3.0 0.00 0.51 0.00 92 1012.7
20260906085518 73 67 0.0 2.0 0.00 0.52 0.00 91 1012.4
20260906085023 73 55 0.0 2.0 0.00 0.52 0.00 91 1012.5
20260906084537 73 52 0.0 1.0 0.00 0.52 0.00 91 1012.7
20260906084020 73 51 0.0 1.0 0.00 0.52 0.00 91 1012.6
20260906083521 73 0 0.0 1.0 0.00 0.52 0.00 91 1012.5
20260906083040 73 0 0.0 2.0 0.00 0.52 0.00 91 1012.7
20260906082517 73 0 0.0 2.0 0.00 0.52 0.00 91 1012.7
20260906082020 73 0 0.0 2.0 0.00 0.52 0.00 91 1012.6
20260906081541 73 0 0.0 1.0 0.00 0.52 0.00 91 1012.5
20260906081020 74 0 0.0 2.0 0.00 0.52 0.00 90 1012.6
20260906080521 74 0 0.0 2.0 0.00 0.52 0.00 90 1012.7
20260906080036 74 54 0.0 2.0 0.00 0.52 0.00 91 1012.7
20260906075518 74 0 0.0 0.0 0.00 0.52 0.00 91 1012.7
20260906075019 74 0 0.0 0.0 0.00 0.52 0.00 91 1012.7
20260906074537 74 0 0.0 0.0 0.00 0.52 0.00 91 1012.7
20260906074021 74 0 0.0 0.0 0.00 0.52 0.00 91 1012.7
20260906073518 74 0 0.0 0.0 0.00 0.52 0.00 91 1012.8
20260906073037 74 0 0.0 0.0 0.00 0.52 0.00 91 1012.5
20260906072518 74 0 0.0 0.0 0.00 0.52 0.00 91 1012.5
20260906072018 74 0 0.0 1.0 0.00 0.52 0.00 90 1012.5
20260906071540 74 0 0.0 1.0 0.00 0.52 0.00 90 1012.7
20260906071020 74 32 0.0 1.0 0.00 0.52 0.00 90 1012.5
20260906070519 74 0 0.0 4.0 0.00 0.52 0.00 91 1012.6
20260906070038 74 0 0.0 4.0 0.00 0.52 0.00 91 1012.7
20260906065518 74 53 1.0 5.0 0.00 0.52 0.00 91 1012.6
20260906065016 74 95 1.0 5.0 0.00 0.52 0.00 91 1012.6
20260906064541 74 58 2.0 5.0 0.00 0.52 0.00 91 1012.6
20260906064021 75 62 0.0 3.0 0.00 0.52 0.00 91 1012.5
20260906063520 75 0 0.0 3.0 0.00 0.52 0.00 91 1012.6
20260906063038 75 0 0.0 3.0 0.00 0.52 0.00 90 1012.5
20260906062517 75 0 1.0 3.0 0.00 0.52 0.00 90 1012.7
20260906062018 75 49 0.0 3.0 0.00 0.52 0.00 90 1012.8
20260906061539 75 0 1.0 5.0 0.00 0.52 0.00 91 1012.8
20260906061019 75 82 2.0 5.0 0.00 0.52 0.00 91 1013.0
20260906060520 75 76 1.0 3.0 0.00 0.52 0.00 90 1013.1
20260906060034 75 61 1.0 3.0 0.00 0.52 0.00 90 1013.2
20260906055517 75 65 0.0 2.0 0.00 0.52 0.00 90 1012.9
20260906055019 75 0 0.0 2.0 0.00 0.52 0.00 90 1012.9
20260906054538 75 75 1.0 3.0 0.00 0.52 0.00 90 1013.0
20260906054018 75 75 1.0 3.0 0.00 0.52 0.00 90 1012.9
20260906053520 76 72 0.0 3.0 0.00 0.52 0.00 90 1012.9
20260906053039 76 86 0.0 3.0 0.00 0.52 0.00 90 1012.9
20260906052520 76 56 0.0 4.0 0.00 0.52 0.00 90 1012.8
20260906052021 76 56 0.0 4.0 0.00 0.52 0.00 89 1012.9
20260906051540 76 59 1.0 4.0 0.00 0.52 0.00 89 1012.9
20260906051020 76 63 0.0 2.0 0.00 0.52 0.00 88 1012.9
20260906050517 76 0 0.0 2.0 0.00 0.52 0.00 88 1012.8
20260906050101 77 0 0.0 2.0 0.00 0.52 0.00 88 1012.9
20260906045519 77 79 0.0 2.0 0.00 0.52 0.00 88 1013.0
20260906045016 77 0 0.0 3.0 0.00 0.52 0.00 88 1012.8
20260906044538 77 139 0.0 4.0 0.00 0.52 0.00 87 1012.8
20260906044024 77 133 1.0 4.0 0.00 0.52 0.00 87 1012.8
20260906043521 77 141 0.0 4.0 0.00 0.52 0.00 87 1012.8
20260906043038 77 125 1.0 4.0 0.00 0.52 0.00 87 1012.8
20260906042520 78 153 0.0 4.0 0.00 0.52 0.00 86 1012.5
20260906042020 78 125 1.0 4.0 0.00 0.52 0.00 86 1012.3
20260906041535 78 100 1.0 4.0 0.00 0.52 0.00 85 1012.4
20260906041019 78 85 1.0 4.0 0.00 0.52 0.00 85 1012.3
20260906040519 78 75 1.0 6.0 0.00 0.52 0.00 84 1012.4
20260906040040 79 75 2.0 6.0 0.00 0.52 0.00 84 1012.4
20260906035520 79 59 2.0 7.0 0.00 0.52 0.52 84 1012.4
20260906035018 79 39 3.0 7.0 0.00 0.52 0.52 84 1012.5
20260906034542 79 61 2.0 7.0 0.00 0.52 0.52 84 1012.4
20260906034019 79 65 2.0 7.0 0.00 0.52 0.52 84 1012.4
20260906033520 79 32 4.0 7.0 0.00 0.52 0.52 84 1012.2
20260906033036 80 52 4.0 7.0 0.00 0.52 0.52 83 1012.1
20260906032517 80 53 2.0 7.0 0.00 0.52 0.52 83 1012.1
20260906032020 80 70 3.0 7.0 0.00 0.52 0.52 83 1012.1
20260906031542 80 80 4.0 7.0 0.00 0.52 0.52 84 1012.1
20260906031019 80 65 3.0 7.0 0.00 0.52 0.52 84 1012.1
20260906030523 80 51 3.0 7.0 0.00 0.52 0.52 82 1012.1
20260906030040 80 0 0.0 0.0 0.00 0.52 0.52 80 1012.2
20260906025517 80 0 0.0 0.0 0.00 0.52 0.52 79 1012.0
20260906025018 80 0 0.0 0.0 0.00 0.52 0.52 78 1012.2
20260906024538 80 0 0.0 1.0 0.00 0.52 0.52 78 1012.1
20260906024020 80 0 0.0 1.0 0.00 0.52 0.52 78 1012.1
20260906023520 81 79 0.0 1.0 0.00 0.52 0.52 77 1012.0
20260906023038 81 79 0.0 1.0 0.00 0.52 0.52 76 1012.1
20260906022520 81 0 0.0 0.0 0.00 0.52 0.52 75 1012.1
20260906022020 81 0 0.0 0.0 0.00 0.52 0.52 75 1012.0
20260906021536 81 0 0.0 1.0 0.00 0.52 0.52 75 1012.0
20260906021017 82 0 0.0 1.0 0.00 0.52 0.52 75 1011.8
20260906020521 81 79 0.0 1.0 0.00 0.52 0.52 74 1011.9
20260906020037 81 0 0.0 1.0 0.00 0.52 0.52 75 1011.9
20260906015520 82 0 0.0 1.0 0.00 0.52 0.52 75 1011.8
20260906015018 82 101 0.0 1.0 0.00 0.52 0.52 75 1011.7
20260906014539 82 75 0.0 3.0 0.00 0.52 0.52 74 1011.7
20260906014018 83 75 0.0 3.0 0.00 0.52 0.52 74 1011.8
20260906013519 83 72 2.0 3.0 0.00 0.52 0.52 74 1011.8
20260906013036 83 66 0.0 2.0 0.00 0.52 0.52 71 1011.9
20260906012518 83 0 0.0 1.0 0.00 0.52 0.52 70 1011.6
20260906012020 84 0 0.0 1.0 0.00 0.52 0.52 71 1011.4
20260906011538 84 0 0.0 2.0 0.00 0.52 0.52 70 1011.3
20260906011017 84 163 0.0 2.0 0.00 0.52 0.52 69 1011.2
20260906010520 85 167 1.0 2.0 0.00 0.52 0.52 69 1011.2
20260906010036 85 0 0.0 1.0 0.00 0.52 0.52 70 1011.2
20260906005524 85 0 0.0 1.0 0.00 0.52 0.52 69 1011.2
20260906005020 86 0 0.0 2.0 0.00 0.52 0.52 70 1011.1
20260906004539 86 288 0.0 4.0 0.00 0.52 0.52 70 1011.1
20260906004025 86 0 0.0 4.0 0.00 0.52 0.52 70 1011.1
20260906003522 86 0 0.0 2.0 0.00 0.52 0.52 71 1011.2
20260906003038 87 0 0.0 3.0 0.00 0.52 0.52 71 1011.2
20260906002523 87 0 0.0 3.0 0.00 0.52 0.52 71 1011.1
20260906002020 87 0 0.0 3.0 0.00 0.52 0.52 70 1011.2
20260906001538 88 0 0.0 1.0 0.00 0.52 0.52 70 1011.2
20260906001019 88 131 0.0 1.0 0.00 0.52 0.52 69 1011.4
20260906000520 88 130 0.0 1.0 0.00 0.52 0.52 69 1011.4
20260906000036 88 130 0.0 1.0 0.00 0.52 0.52 69 1011.4
20260905235519 89 127 0.0 1.0 0.00 0.52 0.52 69 1011.4
20260905235019 89 127 0.0 1.0 0.00 0.52 0.52 68 1011.6
20260905234540 90 71 0.0 3.0 0.00 0.52 0.52 67 1011.7
20260905234018 90 71 1.0 3.0 0.00 0.52 0.52 65 1011.8
20260905233518 90 72 1.0 3.0 0.00 0.52 0.52 64 1011.8
20260905233035 91 72 1.0 2.0 0.00 0.52 0.52 62 1011.8
20260905232521 91 0 0.0 1.0 0.00 0.52 0.52 62 1011.8
20260905232020 92 0 0.0 1.0 0.00 0.52 0.52 63 1011.7
20260905231538 92 66 0.0 1.0 0.00 0.52 0.52 61 1011.9
20260905231020 92 0 0.0 1.0 0.00 0.52 0.52 60 1011.7
20260905230519 92 66 0.0 1.0 0.00 0.52 0.52 60 1011.5
20260905230036 92 0 0.0 1.0 0.00 0.52 0.52 59 1011.4
20260905225520 92 66 0.0 1.0 0.00 0.52 0.52 58 1011.4
20260905225019 93 67 0.0 1.0 0.00 0.52 0.52 58 1011.4
20260905224540 93 67 0.0 4.0 0.00 0.52 0.52 59 1011.4
20260905224015 92 49 0.0 5.0 0.00 0.52 0.52 60 1011.3
20260905223519 92 8 2.0 5.0 0.00 0.52 0.52 59 1011.1
20260905223040 93 40 2.0 7.0 0.00 0.52 0.52 58 1011.1
20260905222520 93 358 3.0 7.0 0.00 0.52 0.52 57 1011.0
20260905222019 94 41 2.0 7.0 0.00 0.52 0.52 56 1011.2
20260905221538 95 302 2.0 7.0 0.00 0.52 0.52 55 1011.3
20260905221021 95 13 1.0 3.0 0.00 0.52 0.52 54 1011.1
20260905220522 96 46 1.0 3.0 0.00 0.52 0.52 53 1011.3
20260905220035 96 0 0.0 3.0 0.00 0.52 0.52 54 1011.1
20260905215519 95 357 1.0 5.0 0.00 0.52 0.52 54 1011.2
20260905215016 95 283 1.0 5.0 0.00 0.52 0.52 55 1011.2
20260905214538 95 254 1.0 4.0 0.00 0.52 0.52 54 1011.3
20260905214020 95 276 1.0 4.0 0.00 0.52 0.52 53 1011.4
20260905213518 97 30 0.0 4.0 0.00 0.52 0.52 52 1011.4
20260905213043 96 44 0.0 4.0 0.00 0.52 0.52 53 1011.5
20260905212519 96 14 1.0 4.0 0.00 0.52 0.52 53 1011.4
20260905212023 96 27 1.0 4.0 0.00 0.52 0.52 53 1011.4
20260905211538 96 250 1.0 4.0 0.00 0.52 0.52 54 1011.4
20260905211019 95 279 0.0 4.0 0.00 0.52 0.52 53 1011.4
20260905210519 96 316 2.0 4.0 0.00 0.52 0.52 54 1011.6
20260905210044 96 124 0.0 5.0 0.00 0.52 0.52 53 1011.5
20260905205517 95 124 1.0 7.0 0.00 0.52 0.52 54 1011.6
20260905205020 94 0 1.0 7.0 0.00 0.52 0.52 56 1011.6
20260905204537 94 269 3.0 8.0 0.00 0.52 0.52 56 1011.7
20260905204019 94 334 2.0 8.0 0.00 0.52 0.52 54 1011.9
20260905203519 94 257 2.0 6.0 0.00 0.52 0.52 55 1011.8
20260905203038 95 160 1.0 6.0 0.00 0.52 0.52 54 1011.9
20260905202521 95 286 1.0 6.0 0.00 0.52 0.52 54 1011.9
20260905202020 94 292 1.0 6.0 0.00 0.52 0.52 54 1012.0
20260905201540 94 288 3.0 6.0 0.00 0.52 0.52 55 1012.1
20260905201017 94 304 2.0 7.0 0.00 0.52 0.52 55 1012.2
20260905200517 94 319 3.0 7.0 0.00 0.52 0.52 55 1012.2
20260905200044 94 327 0.0 5.0 0.00 0.52 0.52 55 1012.2
20260905195517 94 276 1.0 7.0 0.00 0.52 0.52 55 1012.4
20260905195020 93 3 3.0 8.0 0.00 0.52 0.52 55 1012.1
20260905194539 93 0 0.0 8.0 0.00 0.52 0.52 55 1012.3
20260905194018 94 64 4.0 8.0 0.00 0.52 0.52 53 1012.4
20260905193516 93 238 1.0 6.0 0.00 0.52 0.52 55 1012.6
20260905193035 93 345 3.0 6.0 0.00 0.52 0.52 54 1012.6
20260905192520 94 11 3.0 6.0 0.00 0.52 0.52 55 1012.7
20260905192024 93 347 2.0 6.0 0.00 0.52 0.52 54 1012.7
20260905191539 94 315 1.0 4.0 0.00 0.52 0.52 54 1012.8
20260905191020 93 0 0.0 4.0 0.00 0.52 0.52 54 1012.9
20260905190520 94 314 0.0 6.0 0.00 0.52 0.52 55 1012.9
20260905190034 93 0 3.0 6.0 0.00 0.52 0.52 54 1013.0
20260905185518 94 302 0.0 7.0 0.00 0.52 0.52 54 1013.0
20260905185019 93 264 2.0 7.0 0.00 0.52 0.52 54 1013.1
20260905184558 93 286 2.0 5.0 0.00 0.52 0.52 54 1013.2
20260905184025 93 172 2.0 5.0 0.00 0.52 0.52 52 1013.2
20260905183524 94 277 1.0 5.0 0.00 0.52 0.52 53 1013.3
20260905183041 93 108 2.0 5.0 0.00 0.52 0.52 54 1013.3
20260905182520 94 228 2.0 5.0 0.00 0.52 0.52 52 1013.4
20260905182020 94 15 1.0 4.0 0.00 0.52 0.52 54 1013.5
20260905181538 93 128 1.0 4.0 0.00 0.52 0.52 55 1013.6
20260905181017 93 205 1.0 4.0 0.00 0.52 0.52 54 1013.7
20260905180518 93 74 1.0 5.0 0.00 0.52 0.52 54 1013.6
20260905180038 93 254 0.0 5.0 0.00 0.52 0.52 57 1013.7
20260905175518 92 285 2.0 5.0 0.00 0.52 0.52 56 1013.9
20260905175016 92 56 2.0 5.0 0.00 0.52 0.52 55 1013.8
20260905174545 93 137 1.0 5.0 0.00 0.52 0.52 54 1013.8
20260905174020 93 134 2.0 5.0 0.00 0.52 0.52 55 1014.0
20260905173518 93 122 1.0 6.0 0.00 0.52 0.52 54 1013.9
20260905173036 92 127 2.0 6.0 0.00 0.52 0.52 56 1014.0
20260905172521 92 140 3.0 6.0 0.00 0.52 0.52 55 1014.1
20260905172020 91 51 1.0 5.0 0.00 0.52 0.52 56 1014.1
20260905171539 91 67 1.0 6.0 0.00 0.52 0.52 57 1014.1
20260905171022 91 126 2.0 8.0 0.00 0.52 0.52 56 1014.1
20260905170519 90 136 3.0 8.0 0.00 0.52 0.52 56 1014.2
20260905170039 90 226 2.0 7.0 0.00 0.52 0.52 56 1014.2
20260905165518 91 119 2.0 7.0 0.00 0.52 0.52 58 1014.3
20260905165018 90 103 2.0 7.0 0.00 0.52 0.52 57 1014.5
20260905164537 89 139 1.0 6.0 0.00 0.52 0.52 58 1014.5
20260905164018 90 139 2.0 6.0 0.00 0.52 0.52 58 1014.7
20260905163518 89 133 1.0 6.0 0.00 0.52 0.52 57 1014.8
20260905163047 89 140 1.0 5.0 0.00 0.52 0.52 59 1014.9
20260905162520 88 0 0.0 5.0 0.00 0.52 0.52 62 1014.9
20260905162019 88 152 2.0 5.0 0.00 0.52 0.52 61 1014.9
20260905161536 88 153 2.0 5.0 0.00 0.52 0.52 60 1014.7
20260905161020 87 46 2.0 7.0 0.00 0.52 0.52 63 1014.6
20260905160520 87 134 2.0 7.0 0.00 0.52 0.52 65 1014.6
20260905160048 87 182 2.0 5.0 0.00 0.52 0.52 65 1014.8
20260905155517 87 128 1.0 6.0 0.00 0.52 0.52 63 1014.8
20260905155016 86 95 2.0 8.0 0.00 0.52 0.52 65 1014.9
20260905154547 85 58 3.0 8.0 0.00 0.52 0.52 66 1014.9
20260905154018 85 174 3.0 6.0 0.00 0.52 0.52 67 1014.9
20260905153518 85 128 3.0 7.0 0.00 0.52 0.52 67 1014.9
20260905153038 85 131 2.0 7.0 0.00 0.52 0.52 67 1014.9
20260905152518 85 148 1.0 6.0 0.00 0.52 0.52 68 1014.8
20260905152020 84 136 1.0 7.0 0.00 0.52 0.52 71 1014.8
20260905151538 83 57 2.0 7.0 0.00 0.52 0.52 71 1014.9
20260905151022 83 63 3.0 7.0 0.00 0.52 0.52 70 1014.8
20260905150519 83 135 2.0 7.0 0.00 0.52 0.52 72 1014.9
20260905150037 82 141 4.0 7.0 0.00 0.52 0.52 71 1014.9
20260905145519 82 108 2.0 8.0 0.00 0.52 0.52 74 1014.9
20260905145021 81 67 3.0 9.0 0.00 0.52 0.52 72 1015.1
20260905144547 81 41 3.0 9.0 0.00 0.52 0.52 74 1015.1
20260905144019 81 27 4.0 9.0 0.00 0.52 0.52 73 1015.2
20260905143519 81 82 2.0 6.0 0.00 0.52 0.52 74 1015.2
20260905143038 80 163 1.0 7.0 0.00 0.52 0.52 77 1015.4
20260905142519 80 120 2.0 9.0 0.00 0.52 0.52 76 1015.4
20260905142022 79 83 4.0 10.0 0.00 0.52 0.52 77 1015.4
20260905141600 79 145 4.0 11.0 0.00 0.52 0.52 77 1015.4
20260905141018 79 120 5.0 11.0 0.00 0.52 0.52 76 1015.5
20260905140517 79 103 4.0 10.0 0.00 0.52 0.52 79 1015.6
20260905140043 78 82 3.0 10.0 0.00 0.52 0.52 79 1015.7
20260905135519 77 53 5.0 10.0 0.00 0.52 0.52 80 1015.6
20260905135019 77 97 5.0 11.0 0.00 0.52 0.52 80 1015.6
20260905134533 77 66 4.0 13.0 0.00 0.52 0.52 80 1015.6
20260905134017 76 107 5.0 16.0 0.00 0.52 0.52 83 1015.6
20260905133519 76 74 4.0 16.0 0.00 0.52 0.52 83 1015.6
20260905133051 75 94 5.0 11.0 0.00 0.52 0.52 84 1015.9
20260905132520 75 117 4.0 11.0 0.00 0.52 0.52 85 1016.0